Вернуться в каталог

STARLINK-3548

АктивенСвязьVLEO
NORAD 51864·PAYLOAD·🇺🇸 United States

Запущен Mar 3, 2022 с Cape Canaveral Space Force Station

Loading…

Ближайшие Пролёты (ближайшие 24 часа)

TLE

СвежийSource: CelesTrak SupGP

Эпоха: Sep 14, 2026, 22:11 UTC

1 51864C 22022N   26257.92479167  .00020973  00000+0  61951-3 0  2571
2 51864  53.1594 229.4361 0001339  95.1524 264.8371 15.34386731    15

Отслеживайте STARLINK-3548 в реальном времени с AllMySat

Download on the App Store